View from above orbital plane
|
View from above satellite
|
Ground track
|
The orbit data is extracted from the following two-line orbital elements,
1 16182U 85097B 21016.76504529 -.00000273 00000-0 -11346-3 0 9997
2 16182 71.0019 132.6823 0009680 246.0639 224.1731 14.16254718821343
Epoch (UTC): | 16 January 2021 18:21:39 |
Eccentricity: | 0.0009680 |
inclination: | 71.0019° |
perigee height: | 831 km |
apogee height: | 845 km |
right ascension of ascending node: | 132.6823° |
argument of perigee: | 246.0639° |
revolutions per day: | 14.16254718 |
mean anomaly at epoch: | 224.1731° |
orbit number at epoch: | 82134 |
The dashed part of the orbit path shows where the satellite is in the earth's shadow,
|
|